OK1VCF-5 Weather Reports


time (UTC)temp
C
wind
direction
speed
KPH
gust
KPH
rain 1hr
cm
rain 24hr
cm
rain mn
cm
humidity
%
barometer
mb
20260507170237 15 0 0.0 0.0 0.00 0.00 0.00 62 1017.7
20260507164734 15 0 0.0 0.0 0.00 0.00 0.00 62 1017.7
20260507163235 16 0 0.0 0.0 0.00 0.00 0.00 62 1017.2
20260507161734 16 0 0.0 0.0 0.00 0.00 0.00 60 1017.1
20260507160235 17 0 0.0 0.0 0.00 0.00 0.00 58 1016.9
20260507154732 17 0 0.0 0.0 0.00 0.00 0.00 56 1016.8
20260507151731 16 0 0.0 0.0 0.00 0.00 0.00 55 1016.8
20260507150230 17 0 0.0 0.0 0.00 0.00 0.00 52
20260507144731 17 0 0.0 0.0 0.00 0.00 0.00 54 1016.4
20260507143229 18 0 0.0 0.0 0.00 0.00 0.00 50 1016.4
20260507141728 18 0 0.0 0.0 0.00 0.00 0.00 52 1016.6
20260507134725 18 0 0.0 0.0 0.00 0.00 0.00 54 1016.6
20260507133225 17 0 0.0 0.0 0.00 0.00 0.00 54 1016.7
20260507131725 18 0 0.0 0.0 0.00 0.00 0.00 53 1016.7
20260507130224 18 0 0.0 0.0 0.00 0.00 0.00 54 1016.7
20260507124723 17 0 0.0 0.0 0.00 0.00 0.00 55 1016.8
20260507123222 16 0 0.0 0.0 0.00 0.00 0.00 58 1016.6
20260507121724 16 0 0.0 0.0 0.00 0.00 0.00 55 1016.6
20260507120221 17 0 0.0 0.0 0.00 0.00 0.00 51 1016.6
20260507114720 16 0 0.0 0.0 0.00 0.00 0.00 56 1016.5
20260507113219 17 0 0.0 0.0 0.00 0.00 0.00 57 1016.5
20260507111718 17 0 0.0 0.0 0.00 0.00 0.00 52 1016.5
20260507110216 17 0 0.0 0.0 0.00 0.00 0.00 57 1016.4
20260507104717 17 0 0.0 0.0 0.00 0.00 0.00 56 1016.4
20260507103216 17 0 0.0 0.0 0.00 0.00 0.00 57 1016.4
20260507101715 17 0 0.0 0.0 0.00 0.00 0.00 58 1016.4
20260507100250 16 0 0.0 0.0 0.00 0.00 0.00 60 1016.4
20260507100214 16 0 0.0 0.0 0.00 0.00 0.00 60 1016.4
20260507094714 17 0 0.0 0.0 0.00 0.00 0.00 57 1016.1
20260507093213 16 0 0.0 0.0 0.00 0.00 0.00 58 1016.2
20260507091712 17 0 0.0 0.0 0.00 0.00 0.00 56 1016.0
20260507090211 17 0 0.0 0.0 0.00 0.00 0.00 58 1015.8
20260507084832 17 0 0.0 0.0 0.00 0.00 0.00 56 1015.8
20260507084711 17 0 0.0 0.0 0.00 0.00 0.00 56 1015.8
20260507083214 -17 0 0.0 0.0 1.52 0.00 0.00 64 1015.8
20260507083208 15 0 0.0 0.0 0.00 0.00 0.00 64 1015.8
20260507081709 18 0 0.0 0.0 0.00 0.00 0.00 58 1015.6
20260507080208 17 0 0.0 0.0 0.00 0.00 0.00 61 1015.6
20260507074707 17 0 0.0 0.0 0.00 0.00 0.00 64 1015.4
20260507073207 15 0 0.0 0.0 0.00 0.00 0.00 65 1015.4
20260507071706 15 0 0.0 0.0 0.00 0.00 0.00 70 1015.3
20260507070204 13 0 0.0 0.0 0.00 0.00 0.00 72 1015.2
20260507064703 14 0 0.0 0.0 0.00 0.00 0.00 73 1015.2
20260507063202 14 0 0.0 0.0 0.00 0.00 0.00 73 1015.1
20260507061905 13 0 0.0 0.0 0.00 0.00 0.00 78 1015.2
20260507061703 13 0 0.0 0.0 0.00 0.00 0.00 78 1015.2
20260507060202 13 0 0.0 0.0 0.00 0.00 0.00 80 1015.0
20260507054701 12 0 0.0 0.0 0.00 0.00 0.00 84 1014.6
20260507053200 12 0 0.0 0.0 0.00 0.00 0.00 86 1014.4
20260507051700 11 0 0.0 0.0 0.00 0.00 0.00 90 1014.4
20260507050201 12 0 0.0 0.0 0.00 0.00 0.00 88 1014.4
20260507044658 11 0 0.0 0.0 0.00 0.00 0.00 89 1014.2
20260507043157 11 0 0.0 0.0 0.00 0.00 0.00 90 1014.0
20260507041656 11 0 0.0 0.0 0.00 0.00 0.00 90 1013.8
20260507040156 11 0 0.0 0.0 0.00 0.00 0.00 89 1013.6
20260507034655 11 0 0.0 0.0 0.00 0.00 0.00 90 1013.5
20260507033156 -17 0 0.0 0.0 0.00 0.00 0.00 90 1013.2
20260507031652 11 0 0.0 0.0 0.00 0.00 0.00 90 1013.2
20260507030153 11 0 0.0 0.0 0.00 0.00 0.00 90 1013.2
20260507024650 11 0 0.0 0.0 0.00 0.00 0.00 90 1013.0
20260507023151 11 0 0.0 0.0 0.00 0.00 0.00 90 1013.0
20260507021650 11 0 0.0 0.0 0.00 0.00 0.00 93 1013.0
20260507020148 11 0 0.0 0.0 0.00 0.00 0.00 92 1013.0
20260507014649 11 0 0.0 0.0 0.00 0.00 0.00 92 1012.8
20260507013825 11 0 0.0 0.0 0.00 0.00 0.00 94 1012.8
20260507013148 11 0 0.0 0.0 0.00 0.00 0.00 94 1012.8
20260507011646 11 0 0.0 0.0 0.00 0.00 0.00 94 1012.6
20260507010146 11 0 0.0 0.0 0.00 0.00 0.00 94 1012.4
20260507004644 11 0 0.0 0.0 0.00 0.00 0.00 94 1012.2
20260507003432 11 0 0.0 0.0 0.00 0.00 0.00 94 1012.2
20260507003145 11 0 0.0 0.0 0.00 0.00 0.00 94 1012.2
20260507001644 11 0 0.0 0.0 0.00 0.00 0.00 94 1012.4
20260507000346 11 0 0.0 0.0 0.00 0.00 0.00 94 1012.0
20260507000143 11 0 0.0 0.0 0.00 0.00 0.00 94 1012.0
20260506234641 11 0 0.0 0.0 0.00 0.00 0.00 94 1011.8
20260506233143 12 0 0.0 0.0 0.00 0.00 0.00 93 1011.8
20260506231642 12 0 0.0 0.0 0.00 0.00 0.00 92 1011.6
20260506230140 12 0 0.0 0.0 0.00 0.00 0.00 92 1011.5
20260506224639 13 0 0.0 0.0 0.00 0.00 0.00 92 1011.6
20260506223256 13 0 0.0 0.0 0.00 0.00 0.00 92 1011.5
20260506223138 13 0 0.0 0.0 0.00 0.00 0.00 92 1011.5
20260506221638 13 0 0.0 0.0 0.00 0.00 0.00 91 1011.6
20260506220137 13 0 0.0 0.0 0.00 0.00 0.00 92 1011.2
20260506214635 13 0 0.0 0.0 0.00 0.00 0.00 92 1011.0
20260506213527 13 0 0.0 0.0 0.00 0.00 0.00 91 1010.6
20260506213135 13 0 0.0 0.0 0.00 0.00 0.00 91 1010.6
20260506211636 13 0 0.0 0.0 0.00 0.00 0.00 91 1010.6
20260506210132 13 0 0.0 0.0 0.00 0.00 0.00 90 1010.6
20260506204634 13 0 0.0 0.0 0.00 0.00 0.00 92 1010.8
20260506203132 13 0 0.0 0.0 0.00 0.00 0.00 89 1011.6
20260506200131 15 0 0.0 0.0 0.00 0.00 0.00 86 1011.6
20260506194629 14 0 0.0 0.0 0.00 0.00 0.00 86 1010.4
20260506193129 14 0 0.0 0.0 0.00 0.00 0.00 89 1009.2
20260506191628 15 0 0.0 0.0 0.00 0.00 0.00 89 1009.3
20260506190128 15 0 0.0 0.0 0.00 0.00 0.00 80 1008.8
20260506184627 15 0 0.0 0.0 0.00 0.00 0.00 78 1008.7
20260506183130 15 0 0.0 0.0 0.00 0.00 0.00 76 1008.4
20260506183126 15 0 0.0 0.0 0.00 0.00 0.00 76 1008.4
20260506181626 15 0 0.0 0.0 0.00 0.00 0.00 76 1008.2
20260506181624 15 0 0.0 0.0 0.00 0.00 0.00 76 1008.2
20260506180123 16 0 0.0 0.0 0.00 0.00 0.00 73 1008.0
20260506174624 16 0 0.0 0.0 0.00 0.00 0.00 72 1008.0
20260506173123 17 0 0.0 0.0 0.00 0.00 0.00 70 1007.8
20260506171625 17 0 0.0 0.0 0.00 0.00 0.00 69 1007.9